Back to catalog

KUIPER-00120

AliveCommunicationsLEO
NORAD 65762·PAYLOAD·🇺🇸 United States

Launched Sep 25, 2025 from Cape Canaveral Space Force Station

Loading…

Next Passes (next 24 hours)

TLE

FreshSource: CelesTrak SupGP

Epoch: Sep 14, 2026, 20:33 UTC

1 65762C 25217A   26257.85675926  .00000526  00000+0  68852-4 0  2575
2 65762  51.8979 296.5525 0000457  69.5412 107.5436 14.79927810    19

Track KUIPER-00120 in real time with AllMySat

Download on the App Store